Overview Statistics Trail Chart Weather Telemetry Raw packets
 

This is the latest recevied weather packets stored in our database for station/object KO4FQW-11. If no packets are shown the sender has not sent any weather packets the latest 10 day(s).

<< 2 3 4 5 6 7 8 >>
Time Temp. Humidity Pressure Rain* Wind** Luminosity Snow
1788451049 31.67° C 61% 1016 hPa 0 mm - - -
1788450090 31.67° C 61% 1016 hPa 0 mm - - -
1788449131 28.33° C 70% 1016 hPa 0 mm - - -
1788448170 28.33° C 70% 1016 hPa 0 mm - - -
1788447210 28.33° C 70% 1016 hPa 0 mm - - -
1788446251 25.56° C 80% 1016 hPa 0 mm - - -
1788445290 25.56° C 80% 1016 hPa 0 mm - - -
1788444485 25.56° C 80% 1016 hPa 0 mm - - -
1788444329 25.56° C 80% 1016 hPa 0 mm - - -
1788443370 25.56° C 80% 1016 hPa 0 mm - - -
1788442410 22.22° C 92% 1016 hPa 0 mm - - -
1788441800 22.22° C 92% 1016 hPa 0 mm - - -
1788441451 22.22° C 92% 1016 hPa 0 mm - - -
1788440490 22.22° C 92% 1016 hPa 0 mm - - -
1788439530 22.22° C 92% 1016 hPa 0 mm - - -
1788438569 20° C 89% 1015 hPa 0 mm - - -
1788437911 20° C 89% 1015 hPa 0 mm - - -
1788437611 20° C 89% 1015 hPa 0 mm - - -
1788436651 20° C 89% 1015 hPa 0 mm - - -
1788435689 20° C 89% 1015 hPa 0 mm - - -
1788435175 20.56° C 90% 1015 hPa 0 mm - - -
1788434730 20.56° C 90% 1015 hPa 0 mm - - -
1788434068 20.56° C 90% 1015 hPa 0 mm - - -
1788433773 20.56° C 90% 1015 hPa 0 mm - - -
1788432812 20.56° C 90% 1015 hPa 0 mm - - -

* Rain latest hour (hover to see other rain measurements)
** Current wind speed in m/s (hover to see current wind gust speed)